EW0362 Weather Reports


time (UTC)temp
C
wind
direction
speed
KPH
gust
KPH
rain 1hr
cm
rain 24hr
cm
rain mn
cm
humidity
%
barometer
mb
20260905165204 22 22 1.6 8.0 0.00 0.00 0.00 76 1009.6
20260905164204 22 245 1.6 8.0 0.00 0.00 0.00 75 1009.5
20260905163704 22 43 1.6 4.8 0.00 0.00 0.00 77 1009.6
20260905162704 22 74 1.6 11.3 0.00 0.00 0.00 76 1009.6
20260905162205 21 251 1.6 3.2 0.00 0.00 0.00 78 1009.7
20260905161204 21 80 0.0 3.2 0.00 0.00 0.00 80 1009.8
20260905154705 21 62 1.6 3.2 0.00 0.00 0.00 79 1009.8
20260905153704 21 39 0.0 4.8 0.00 0.00 0.00 81 1009.8
20260905152704 21 84 1.6 8.0 0.00 0.00 0.00 82 1009.9
20260905152205 21 151 0.0 3.2 0.00 0.00 0.00 82 1009.9
20260905151204 21 64 0.0 3.2 0.00 0.00 0.00 85 1009.8
20260905144704 20 84 0.0 1.6 0.00 0.00 0.00 85 1010.0
20260905143205 20 84 0.0 0.0 0.00 0.00 0.00 84 1010.0
20260905142204 20 84 1.6 3.2 0.00 0.00 0.00 85 1010.0
20260905135204 20 133 0.0 3.2 0.00 0.00 0.00 89 1009.9
20260905134704 20 78 0.0 3.2 0.00 0.00 0.00 87 1009.9
20260905133204 19 54 0.0 3.2 0.00 0.00 0.00 88 1009.8
20260905132705 19 46 0.0 1.6 0.00 0.00 0.00 89 1009.7
20260905131704 18 39 0.0 0.0 0.00 0.00 0.00 91 1009.6
20260905130704 18 77 0.0 0.0 0.00 0.00 0.00 92 1009.5
20260905124704 18 267 0.0 0.0 0.00 0.00 0.00 95 1009.4
20260905124204 17 267 0.0 1.6 0.00 0.00 0.00 95 1009.4
20260905123705 17 267 0.0 3.2 0.00 0.00 0.00 95 1009.3
20260905123204 17 10 0.0 3.2 0.00 0.00 0.00 95 1009.3
20260905122704 17 65 0.0 3.2 0.00 0.00 0.00 95 1009.2
20260905121704 17 64 0.0 3.2 0.00 0.00 0.00 97 1009.0
20260905120704 16 337 0.0 1.6 0.00 0.00 0.00 98 1009.1
20260905120204 16 337 0.0 0.0 0.00 0.00 0.00 98 1009.0
20260905113704 16 81 0.0 0.0 0.00 0.00 0.00 98 1008.9
20260905113204 16 81 0.0 0.0 0.00 0.00 0.00 97 1008.9
20260905112704 16 81 0.0 0.0 0.00 0.00 0.00 97 1008.9
20260905111704 15 81 0.0 0.0 0.00 0.00 0.00 97 1008.9
20260905111204 15 81 0.0 0.0 0.00 0.00 0.00 97 1008.9
20260905105704 15 81 0.0 0.0 0.00 0.00 0.00 96 1008.7
20260905105204 15 81 0.0 0.0 0.00 0.00 0.00 96 1008.7
20260905103204 15 81 0.0 0.0 0.00 0.00 0.00 96 1008.7
20260905102704 15 80 0.0 0.0 0.00 0.00 0.00 96 1008.6
20260905102204 15 81 0.0 0.0 0.00 0.00 0.00 96 1008.5
20260905101704 15 80 0.0 0.0 0.00 0.00 0.00 96 1008.5
20260905101204 15 81 0.0 0.0 0.00 0.00 0.00 96 1008.4
20260905100204 15 80 0.0 0.0 0.00 0.00 0.00 96 1008.4
20260905095704 15 81 0.0 0.0 0.00 0.00 0.00 96 1008.4
20260905095204 15 81 0.0 0.0 0.00 0.00 0.00 96 1008.3
20260905094704 15 81 0.0 0.0 0.00 0.00 0.00 96 1008.3
20260905094204 15 81 0.0 0.0 0.00 0.00 0.00 96 1008.3
20260905093704 15 81 0.0 0.0 0.00 0.00 0.00 96 1008.3
20260905091704 15 80 0.0 0.0 0.00 0.00 0.00 95 1008.2
20260905090204 15 81 0.0 0.0 0.00 0.00 0.00 95 1008.2
20260905085703 15 80 0.0 0.0 0.00 0.00 0.00 95 1008.1
20260905083204 15 80 0.0 0.0 0.00 0.00 0.00 95 1008.0
20260905082704 15 80 0.0 0.0 0.00 0.00 0.00 95 1008.0
20260905082204 15 80 0.0 0.0 0.00 0.00 0.00 94 1008.0
20260905081204 15 81 0.0 0.0 0.00 0.00 0.00 95 1008.0
20260905080204 15 81 0.0 0.0 0.00 0.00 0.00 94 1008.0
20260905072204 15 80 0.0 0.0 0.00 0.00 0.00 94 1008.1
20260905071704 15 81 0.0 0.0 0.00 0.00 0.00 94 1008.2
20260905070204 15 81 0.0 0.0 0.00 0.00 0.00 94 1008.3
20260905064204 16 80 0.0 0.0 0.00 0.00 0.00 94 1008.4
20260905063203 16 80 0.0 0.0 0.00 0.00 0.00 94 1008.5
20260905062204 16 81 0.0 0.0 0.00 0.00 0.00 94 1008.4
20260905061704 16 80 0.0 0.0 0.00 0.00 0.00 94 1008.5
20260905060204 16 80 0.0 0.0 0.00 0.00 0.00 94 1008.7
20260905055703 16 81 0.0 0.0 0.00 0.00 0.00 94 1008.7
20260905054204 16 81 0.0 0.0 0.00 0.00 0.00 94 1008.6
20260905053704 16 81 0.0 0.0 0.00 0.00 0.00 94 1008.6
20260905052704 16 81 0.0 0.0 0.00 0.00 0.00 93 1008.6
20260905052203 16 80 0.0 0.0 0.00 0.00 0.00 93 1008.6
20260905051204 16 81 0.0 0.0 0.00 0.00 0.00 93 1008.7
20260905045204 16 80 0.0 0.0 0.00 0.00 0.00 93 1008.6
20260905044704 16 81 0.0 0.0 0.00 0.00 0.00 92 1008.6
20260905044204 16 81 0.0 0.0 0.00 0.00 0.00 93 1008.5
20260905043704 16 80 0.0 0.0 0.00 0.00 0.00 93 1008.5
20260905043203 16 81 0.0 0.0 0.00 0.00 0.00 92 1008.5
20260905042704 16 81 0.0 0.0 0.00 0.00 0.00 92 1008.5
20260905041704 16 81 0.0 0.0 0.00 0.00 0.00 92 1008.8
20260905040703 17 80 0.0 0.0 0.00 0.00 0.00 92 1008.7
20260905035703 17 81 0.0 0.0 0.00 0.00 0.00 91 1008.6
20260905034703 17 81 0.0 0.0 0.00 0.00 0.00 91 1008.5
20260905034204 17 81 0.0 0.0 0.00 0.00 0.00 91 1008.6
20260905033203 17 80 0.0 0.0 0.00 0.00 0.00 91 1008.7
20260905032204 17 81 0.0 0.0 0.00 0.00 0.00 90 1008.6
20260905031703 17 81 0.0 0.0 0.00 0.00 0.00 90 1008.6
20260905031204 17 81 0.0 0.0 0.00 0.00 0.00 90 1008.6
20260905030703 17 81 0.0 0.0 0.00 0.00 0.00 90 1008.7
20260905025703 17 81 0.0 0.0 0.00 0.00 0.00 90 1008.9
20260905024203 17 81 0.0 0.0 0.00 0.00 0.00 89 1008.9
20260905023704 17 81 0.0 0.0 0.00 0.00 0.00 89 1008.9
20260905021704 18 81 0.0 0.0 0.00 0.03 0.00 88 1008.9
20260905020703 18 80 0.0 0.0 0.00 0.03 0.00 87 1009.0
20260905015703 18 80 0.0 0.0 0.00 0.03 0.00 87 1009.0
20260905015204 18 81 0.0 0.0 0.00 0.03 0.00 87 1009.0
20260905014704 18 81 0.0 0.0 0.00 0.03 0.00 87 1009.0
20260905013703 18 80 0.0 0.0 0.00 0.03 0.00 86 1009.0
20260905013204 18 81 0.0 0.0 0.00 0.03 0.00 88 1009.1
20260905011204 19 81 0.0 0.0 0.00 0.03 0.00 86 1009.1
20260905005705 20 81 0.0 0.0 0.00 0.03 0.00 84 1009.1
20260905005205 20 81 0.0 0.0 0.00 0.03 0.00 83 1009.0
20260905004205 20 81 0.0 0.0 0.00 0.03 0.00 84 1008.9
20260905002704 20 80 0.0 0.0 0.00 0.03 0.00 81 1008.9
20260905002205 20 81 0.0 0.0 0.00 0.03 0.00 81 1008.9
20260905001204 21 81 0.0 0.0 0.00 0.03 0.00 81 1008.8
20260904233205 22 80 0.0 3.2 0.00 0.03 0.00 80 1008.3
20260904232704 22 81 0.0 4.8 0.00 0.03 0.00 77 1008.3
20260904231204 23 74 0.0 0.0 0.00 0.03 0.00 78 1008.2
20260904225705 23 74 0.0 0.0 0.00 0.03 0.00 73 1008.2
20260904222704 25 74 0.0 0.0 0.00 0.03 0.00 69 1008.0
20260904222205 25 74 0.0 1.6 0.00 0.03 0.00 64 1008.0
20260904221205 25 74 0.0 1.6 0.00 0.03 0.00 64 1007.9
20260904220704 25 74 1.6 3.2 0.00 0.03 0.00 63 1007.9
20260904215704 25 76 1.6 4.8 0.00 0.03 0.00 65 1007.9
20260904215209 25 70 1.6 4.8 0.00 0.03 0.00 65 1007.9
20260904214204 25 117 0.0 1.6 0.00 0.03 0.00 65 1007.8
20260904213704 25 117 0.0 3.2 0.00 0.03 0.00 65 1007.8
20260904212205 25 236 1.6 4.8 0.00 0.03 0.00 69 1007.9
20260904211204 25 250 1.6 4.8 0.00 0.03 0.00 66 1007.9
20260904210705 25 252 1.6 9.7 0.00 0.03 0.00 66 1008.0
20260904205704 25 199 1.6 4.8 0.00 0.03 0.00 67 1007.9
20260904204704 25 230 0.0 4.8 0.00 0.03 0.00 67 1007.9
20260904204204 25 231 0.0 1.6 0.00 0.03 0.00 68 1007.9
20260904203705 26 231 0.0 4.8 0.00 0.03 0.00 65 1007.9
20260904201205 26 350 0.0 4.8 0.00 0.03 0.00 61 1008.1
20260904194705 26 293 1.6 4.8 0.00 0.03 0.00 60 1007.9
20260904193211 27 231 1.6 4.8 0.00 0.03 0.00 59 1007.9
20260904191705 27 38 1.6 8.0 0.00 0.03 0.00 57 1007.7
20260904191204 27 304 1.6 11.3 0.00 0.03 0.00 57 1007.7
20260904190704 27 78 3.2 11.3 0.00 0.03 0.00 59 1007.7
20260904190204 27 310 1.6 4.8 0.00 0.03 0.00 59 1007.7
20260904185204 27 301 1.6 3.2 0.00 0.03 0.00 61 1007.8
20260904183705 27 49 1.6 4.8 0.00 0.03 0.00 59 1008.0
20260904182705 27 214 3.2 9.7 0.00 0.03 0.00 59 1008.1
20260904180708 26 77 1.6 12.9 0.00 0.03 0.00 63 1008.1
20260904180204 26 251 1.6 4.8 0.00 0.03 0.00 62 1008.1
20260904175704 26 268 3.2 9.7 0.00 0.03 0.00 62 1008.1
20260904173704 26 345 1.6 4.8 0.00 0.03 0.00 62 1008.0
20260904173204 26 249 3.2 8.0 0.00 0.03 0.00 62 1008.1
20260904172705 26 334 3.2 8.0 0.00 0.03 0.00 63 1008.1
20260904170704 26 343 3.2 8.0 0.00 0.03 0.00 63 1008.4
20260904170204 26 233 1.6 4.8 0.00 0.03 0.00 66 1008.6